Torna al catalogo

STARLINK-36563

AttivoComunicazioniSSO
NORAD 67550·PAYLOAD·🇺🇸 United States

Lanciato Jan 22, 2026 da Vandenberg Space Force Base

Loading…

Prossimi Passaggi (prossime 24 ore)

TLE

AggiornatoSource: CelesTrak SupGP

Epoca: Sep 14, 2026, 23:09 UTC

1 67550C 26014U   26257.96506944  .00046805  00000+0  14536-2 0  2571
2 67550  97.2847 143.4830 0001720  90.8307 314.7650 15.33400367    11

Traccia STARLINK-36563 in tempo reale con AllMySat

Download on the App Store